Hourly Weather Barlogi

Today, 18 April, Sunday

Time Temperature Precipitation Wind Pressure Humidity
00:00 +7°C° 0 mm 1 mps 758 mmHg 94%
01:00 +7°C° 0 mm 1 mps 758 mmHg 94%
02:00 +7°C° 0 mm 1 mps 758 mmHg 95%
03:00 +7°C° 0 mm 1 mps 758 mmHg 95%
04:00 +7°C° 0 mm 1 mps 758 mmHg 95%
05:00 +7°C° 0.7 mm 1 mps 758 mmHg 95%
06:00 +7°C° 0.7 mm 1 mps 758 mmHg 96%
07:00 +7°C° 0.7 mm 1 mps 758 mmHg 96%
08:00 +8°C° 0.4 mm 1 mps 758 mmHg 93%
09:00 +9°C° 0.4 mm 1 mps 758 mmHg 90%
10:00 +10°C° 0.4 mm 1 mps 758 mmHg 87%
11:00 +10°C° 0.4 mm 1 mps 758 mmHg 86%
12:00 +10°C° 0.4 mm 1 mps 758 mmHg 84%
13:00 +11°C° 0.4 mm 1 mps 758 mmHg 83%
14:00 +12°C° 0.1 mm 1 mps 758 mmHg 78%
15:00 +13°C° 0.1 mm 1 mps 757 mmHg 72%
16:00 +12°C° 0.1 mm 0 mps 757 mmHg 66%
17:00 +12°C° 0.1 mm 1 mps 757 mmHg 73%
18:00 +11°C° 0.1 mm 1 mps 758 mmHg 79%
19:00 +9°C° 0.1 mm 1 mps 758 mmHg 85%
20:00 +9°C° 0 mm 1 mps 758 mmHg 86%
21:00 +9°C° 0 mm 1 mps 758 mmHg 88%
22:00 +8°C° 0 mm 1 mps 758 mmHg 90%
23:00 +8°C° 0 mm 1 mps 758 mmHg 91%

Tomorrow, 19 April, Monday

Time Temperature Precipitation Wind Pressure Humidity
00:00 +8°C° 0 mm 1 mps 758 mmHg 92%
01:00 +7°C° 0 mm 1 mps 758 mmHg 93%
02:00 +7°C° 0 mm 1 mps 758 mmHg 94%
03:00 +7°C° 0 mm 1 mps 758 mmHg 94%
04:00 +6°C° 0 mm 1 mps 758 mmHg 94%
05:00 +7°C° 0 mm 1 mps 758 mmHg 91%
06:00 +8°C° 0 mm 1 mps 758 mmHg 88%
07:00 +9°C° 0 mm 1 mps 758 mmHg 85%
08:00 +10°C° 0 mm 1 mps 758 mmHg 81%
09:00 +10°C° 0 mm 2 mps 758 mmHg 78%
10:00 +10°C° 0 mm 2 mps 758 mmHg 75%
11:00 +12°C° 0.1 mm 2 mps 758 mmHg 75%
12:00 +12°C° 0.1 mm 2 mps 758 mmHg 75%
13:00 +11°C° 0.1 mm 3 mps 758 mmHg 75%
14:00 +12°C° 0.1 mm 3 mps 757 mmHg 71%
15:00 +14°C° 0.1 mm 2 mps 757 mmHg 68%
16:00 +15°C° 0.1 mm 2 mps 757 mmHg 64%
17:00 +13°C° 0.2 mm 2 mps 757 mmHg 70%
18:00 +12°C° 0.2 mm 2 mps 756 mmHg 76%
19:00 +11°C° 0.2 mm 1 mps 756 mmHg 82%
20:00 +10°C° 0 mm 1 mps 756 mmHg 83%
21:00 +10°C° 0 mm 1 mps 756 mmHg 84%
22:00 +9°C° 0 mm 1 mps 756 mmHg 85%
23:00 +9°C° 0 mm 1 mps 756 mmHg 86%

Day after tomorrow, 20 April, Tuesday

Time Temperature Precipitation Wind Pressure Humidity
00:00 +8°C° 0 mm 1 mps 756 mmHg 87%
01:00 +8°C° 0 mm 1 mps 756 mmHg 87%
02:00 +7°C° 0 mm 1 mps 756 mmHg 87%
03:00 +7°C° 0 mm 1 mps 756 mmHg 86%
04:00 +7°C° 0 mm 1 mps 756 mmHg 86%
05:00 +8°C° 0 mm 1 mps 756 mmHg 84%
06:00 +9°C° 0 mm 1 mps 756 mmHg 81%
07:00 +10°C° 0 mm 1 mps 756 mmHg 79%
08:00 +11°C° 0.1 mm 1 mps 756 mmHg 73%
09:00 +12°C° 0.1 mm 1 mps 756 mmHg 68%
10:00 +13°C° 0.1 mm 1 mps 756 mmHg 63%
11:00 +14°C° 0.2 mm 1 mps 755 mmHg 59%
12:00 +15°C° 0.2 mm 1 mps 755 mmHg 56%
13:00 +15°C° 0.2 mm 1 mps 755 mmHg 52%
14:00 +15°C° 0.1 mm 1 mps 755 mmHg 52%
15:00 +15°C° 0.1 mm 1 mps 754 mmHg 51%
16:00 +15°C° 0.1 mm 1 mps 754 mmHg 51%
17:00 +14°C° 0 mm 1 mps 754 mmHg 56%
18:00 +13°C° 0 mm 1 mps 754 mmHg 61%
19:00 +12°C° 0 mm 1 mps 754 mmHg 66%
20:00 +10°C° 0 mm 2 mps 754 mmHg 68%
21:00 +10°C° 0 mm 2 mps 754 mmHg 69%
22:00 +9°C° 0 mm 2 mps 754 mmHg 71%
23:00 +9°C° 0 mm 2 mps 754 mmHg 73%

21 April, Wednesday

Time Temperature Precipitation Wind Pressure Humidity
00:00 +9°C° 0 mm 2 mps 753 mmHg 76%
01:00 +8°C° 0 mm 2 mps 753 mmHg 79%
02:00 +8°C° 0 mm 2 mps 753 mmHg 83%
03:00 +8°C° 0 mm 2 mps 753 mmHg 88%
04:00 +7°C° 0 mm 3 mps 753 mmHg 92%
05:00 +8°C° 0 mm 3 mps 753 mmHg 90%
06:00 +8°C° 0 mm 3 mps 753 mmHg 88%
07:00 +7°C° 0 mm 4 mps 753 mmHg 86%
08:00 +8°C° 0 mm 4 mps 753 mmHg 77%
09:00 +11°C° 0 mm 4 mps 753 mmHg 68%
10:00 +12°C° 0 mm 5 mps 753 mmHg 59%
11:00 +13°C° 0 mm 5 mps 753 mmHg 54%
12:00 +14°C° 0 mm 5 mps 752 mmHg 49%
13:00 +14°C° 0 mm 5 mps 752 mmHg 44%
14:00 +14°C° 0 mm 5 mps 752 mmHg 49%
15:00 +13°C° 0 mm 5 mps 752 mmHg 54%
16:00 +13°C° 0 mm 5 mps 752 mmHg 59%
17:00 +10°C° 0.1 mm 5 mps 753 mmHg 67%
18:00 +8°C° 0.1 mm 4 mps 753 mmHg 74%
19:00 +7°C° 0.1 mm 3 mps 754 mmHg 81%
20:00 +7°C° 0.1 mm 3 mps 754 mmHg 82%
21:00 +5°C° 0.1 mm 3 mps 754 mmHg 83%
22:00 +5°C° 0.1 mm 3 mps 755 mmHg 83%
23:00 +4°C° 0 mm 3 mps 755 mmHg 84%

22 April, Thursday

Time Temperature Precipitation Wind Pressure Humidity
00:00 +3°C° 0 mm 3 mps 755 mmHg 84%
01:00 +2°C° 0 mm 3 mps 755 mmHg 84%
02:00 +1°C° 0 mm 3 mps 755 mmHg 86%
03:00 +1°C° 0 mm 3 mps 755 mmHg 89%
04:00 0°C° 0 mm 3 mps 756 mmHg 91%
05:00 +1°C° 0 mm 3 mps 756 mmHg 86%
06:00 0°C° 0 mm 4 mps 756 mmHg 82%
07:00 +1°C° 0 mm 4 mps 756 mmHg 77%
08:00 +3°C° 0.1 mm 4 mps 756 mmHg 70%
09:00 +4°C° 0.1 mm 4 mps 757 mmHg 64%
10:00 +5°C° 0.1 mm 4 mps 757 mmHg 57%
11:00 +6°C° 0.1 mm 4 mps 757 mmHg 57%
12:00 +6°C° 0.1 mm 4 mps 757 mmHg 58%
13:00 +6°C° 0.1 mm 4 mps 757 mmHg 59%
14:00 +6°C° 0.2 mm 4 mps 757 mmHg 60%
15:00 +8°C° 0.2 mm 3 mps 758 mmHg 61%
16:00 +8°C° 0.2 mm 3 mps 758 mmHg 62%
17:00 +7°C° 0.1 mm 2 mps 758 mmHg 69%
18:00 +6°C° 0.1 mm 2 mps 758 mmHg 76%
19:00 +5°C° 0.1 mm 2 mps 759 mmHg 82%
20:00 +5°C° 0 mm 2 mps 759 mmHg 84%
21:00 +4°C° 0 mm 2 mps 759 mmHg 86%
22:00 +4°C° 0 mm 2 mps 760 mmHg 88%
23:00 +5°C° 0 mm 1 mps 760 mmHg 88%

23 April, Friday

Time Temperature Precipitation Wind Pressure Humidity
00:00 +5°C° 0 mm 1 mps 760 mmHg 89%
01:00 +4°C° 0 mm 1 mps 761 mmHg 90%
02:00 +4°C° 0 mm 1 mps 761 mmHg 91%
03:00 +2°C° 0 mm 2 mps 761 mmHg 92%
04:00 +2°C° 0 mm 2 mps 761 mmHg 93%
05:00 +3°C° 0 mm 2 mps 762 mmHg 90%
06:00 +4°C° 0 mm 2 mps 762 mmHg 87%
07:00 +4°C° 0 mm 2 mps 762 mmHg 84%
08:00 +6°C° 0.1 mm 2 mps 762 mmHg 76%
09:00 +7°C° 0.1 mm 2 mps 762 mmHg 69%
10:00 +8°C° 0.1 mm 2 mps 763 mmHg 62%
11:00 +9°C° 0.5 mm 2 mps 763 mmHg 58%
12:00 +10°C° 0.5 mm 2 mps 762 mmHg 55%
13:00 +12°C° 0.5 mm 2 mps 762 mmHg 52%
14:00 +10°C° 0.6 mm 2 mps 763 mmHg 54%
15:00 +10°C° 0.6 mm 2 mps 763 mmHg 57%
16:00 +10°C° 0.6 mm 3 mps 763 mmHg 60%
17:00 +9°C° 0.3 mm 3 mps 763 mmHg 67%
18:00 +7°C° 0.3 mm 3 mps 763 mmHg 75%
19:00 +6°C° 0.3 mm 2 mps 764 mmHg 83%
20:00 +6°C° 0.2 mm 2 mps 764 mmHg 86%
21:00 +6°C° 0.2 mm 2 mps 764 mmHg 89%
22:00 +5°C° 0.2 mm 2 mps 764 mmHg 91%
23:00 +5°C° 0.1 mm 2 mps 764 mmHg 92%
Show more